Home > Weather > East London > Past weeks

Flag for South Africa Past Weather in East London, South Africa — Yesterday and Last 2 Weeks

Now
50 °F

Passing clouds.


Feels Like: 47 °F
Forecast: 45 / 80 °F
Wind: 8 mph from Northwest

Location: East London

Current Time: Jun 29, 2016 at 5:55:36 AM

Latest Report: Jun 29, 2016 at 5:00 AM


Visibility: N/A

Pressure: 30.18 "Hg

Humidity: 71%

Dew Point: 41 °F

Location of East LondonLocation

Past Weather in East London — Graph

°F

East London Temperature Yesterday

Maximum temperature yesterday: 64 °F (at 1:00 PM)
Minimum temperature yesterday: 50 °F (at 7:00 PM)
Average temperature yesterday: 58 °F

High & Low Weather Summary for the Past Weeks

 TemperatureHumidityPressure
High86 °F (Jun 26, 2:00 PM)100% (Jun 25, 5:55 AM)30.48 "Hg (Jun 25, 5:55 AM)
Low46 °F (Jun 17, 7:00 AM)15% (Jun 26, 2:00 PM)29.86 "Hg (Jun 15, 3:00 PM)
Average62 °F61%30.16 "Hg
* Reported Jun 13 8:00 PM — Jun 28 8:00 PM, East London, Weather by CustomWeather, © 2016

Note: Actual official high and low records may vary slightly from our data, if they occured in-between our weather recording intervals... More about our weather records

Advertising

East London Weather History for the Previous 24 Hours

Scroll right to see more
 ConditionsComfort  
Time TempWeatherWind HumidityBarometerVisibility
8:00 PM
Tue, Jun 28
54 °FClear.7 mph67%30.27 "Hg10 mi
7:00 PM50 °FClear.6 mph76%30.27 "Hg10 mi
6:00 PM55 °FClear.6 mph63%30.27 "Hg10 mi
5:00 PM59 °FClear.9 mph55%30.27 "Hg10 mi
4:00 PM61 °FSunny.13 mph52%30.24 "Hg10 mi
3:00 PM63 °FSunny.14 mph45%30.24 "Hg10 mi
2:00 PM64 °FPassing clouds.14 mph37%30.24 "HgN/A
1:00 PM64 °FSunny.16 mph34%30.27 "Hg10 mi
12:00 PM63 °FSunny.17 mph37%30.30 "Hg10 mi
11:00 AM61 °FSunny.18 mph39%30.33 "Hg10 mi
10:00 AM59 °FSunny.14 mph45%30.33 "Hg10 mi
9:00 AM55 °FScattered clouds.14 mph59%30.33 "HgN/A
8:00 AM54 °FScattered clouds.15 mph63%30.30 "HgN/A
7:00 AM54 °FSunny.16 mph63%30.30 "Hg10 mi
6:00 AM55 °FClear.16 mph63%30.27 "Hg10 mi
5:00 AM54 °FPassing clouds.17 mph67%30.24 "HgN/A
Weather by CustomWeather, © 2016

See weather overviewHow to use our weather pages